Regional Weather Roundup
Issued by NWS Charleston, WV

Home | Current Version | Previous Version | Text Only | Print | Product List | Glossary On
Versions: 1 2 3 4 5 6 7 8 9 10 11 12 13 14 15 16 17 18 19 20 21 22 23 24 25 26 27 28 29 30 31 32 33 34 35 36 37 38 39 40 41 42 43 44 45 46 47 48 49 50
000
ASUS41 KRLX 011110
RWRRLX
West Virginia Regional Weather Roundup
National Weather Service Charleston WV
600 AM EST SUN MAR 01 2015

Note: "fair" indicates few or no clouds below 12,000 feet with no
significant weather and/or obstructions to visibility.

WVZ003-011200-
Northern Panhandle of West Virginia

CITY           SKY/WX    TMP DP  RH WIND       PRES   REMARKS
WHEELING       LGT SNOW  26  24  92 S9        30.38F FOG
$$

WVZ009-011200-
Northwest West Virginia

CITY           SKY/WX    TMP DP  RH WIND       PRES   REMARKS
PARKERSBURG    CLOUDY    29  18  63 E5        30.44F
$$

WVZ006-011200-
Western West Virginia

CITY           SKY/WX    TMP DP  RH WIND       PRES   REMARKS
HUNTINGTON     CLOUDY    30  17  58 CALM      30.41R
$$

WVZ015-011200-
West Central West Virginia

CITY           SKY/WX    TMP DP  RH WIND       PRES   REMARKS
CHARLESTON     CLOUDY    31  23  72 CALM      30.41F
$$

WVZ022-031-011200-
North Central West Virginia

CITY           SKY/WX    TMP DP  RH WIND       PRES   REMARKS
CLARKSBURG     CLOUDY    29  18  63 E5        30.45R
MORGANTOWN     LGT SNOW  28  22  78 S3        30.46S VSB 1
$$

WVZ025-035-042-045-011200-
Southern West Virginia

CITY           SKY/WX    TMP DP  RH WIND       PRES   REMARKS
BECKLEY        FLURRIES  30  19  63 SE10      30.42R
LOGAN          CLOUDY    37  25  60 S8        30.37F
BLUEFIELD      CLOUDY    35  22  58 SE5       30.41S
LEWISBURG      FLURRIES  27  17  64 N5        30.49R
$$

WVZ047-011200-
Northern Mountains of West Virginia

CITY           SKY/WX    TMP DP  RH WIND       PRES   REMARKS
ELKINS         CLOUDY    33  20  58 SE3       30.43R
$$

WVZ052-011200-
Eastern Panhandle of West Virginia

CITY           SKY/WX    TMP DP  RH WIND       PRES   REMARKS
MARTINSBURG    CLOUDY    25  10  53 NE3       30.59S
PETERSBURG     CLOUDY    26  10  52 CALM      30.55S
$$



USA.gov is the U.S. government's official web portal to all federal, state and local government web resources and services.